Satellite: CO-58
Catalog number: 28895
Epoch time:      06250.73485969
Element set:     530
Inclination:      098.1507 deg
RA of node:       147.6830 deg
Eccentricity:    0.0017100
Arg of perigee:   275.5760 deg
Mean anomaly:     084.3501 deg
Mean motion:   14.59442163 rev/day
Decay rate:       1.55e-06 rev/day^2
Epoch rev:            4589
Checksum:              324

Satellite: NCUBE2
Catalog number: 28897
Epoch time:      06249.26374724
Element set:     115
Inclination:      098.1525 deg
RA of node:       146.2174 deg
Eccentricity:    0.0016539
Arg of perigee:   282.7486 deg
Mean anomaly:     077.1854 deg
Mean motion:   14.59597696 rev/day
Decay rate:       1.38e-06 rev/day^2
Epoch rev:            3795
Checksum:              353

/EX





More information about the Keps mailing list